Location: Bannatyne
(13.0833°N, 59.5333°W)
Time: 19:08:28
(UTC+00:00)

Transit 2A - Pass Details

Date: 01 February 2020
Orbit: 600 x 959 km, 66.7° (Epoch: 19 February)

Event Time Altitude Azimuth Distance (km) Brightness Sun altitude
Rises 07:44:02 0° 350° (N) 3,189 - -38.7°
Reaches altitude 10° 07:46:25 10° 357° (N) 2,320 - -38.2°
Maximum altitude 07:51:32 45° 69° (ENE) 1,126 - -36.9°
Exits shadow 07:53:09 36° 110° (ESE) 1,321 7.5 -36.6°
Drops below altitude 10° 07:57:07 10° 140° (SE) 2,545 9.2 -35.6°
Sets 07:59:50 0° 147° (SSE) 3,530 10.0 -35.0°
